Weather History for Oklahoma City, OK

Change the Weather History Date:

Sunday, November 3, 2013

  Actual Average Record
Temperature  
Mean Temperature 50 °F 56 °F  
Max Temperature 61 °F 67 °F 84 °F (1909)
Min Temperature 39 °F 45 °F 11 °F (1991)
Degree Days  
Heating Degree Days 15 9  
Month to date heating degree days 35 27  
Since 1 July heating degree days 199 191  
Cooling Degree Days 0 1  
Month to date cooling degree days 0 3  
Year to date cooling degree days 2069 2095  
Moisture  
Dew Point 35 °F    
Average Humidity 58    
Maximum Humidity 76    
Minimum Humidity 39    
Precipitation  
Precipitation 0.00 in 0.09 in 1.51 in (1964)
Month to date precipitation 0.00 0.27  
Year to date precipitation 50.56 32.93  
Sea Level Pressure  
Sea Level Pressure 30.05 in    
Wind  
Wind Speed 16 mph (SSE)    
Max Wind Speed 26 mph    
Max Gust Speed 35 mph    
Visibility 10 miles    
Events      
T = Trace of Precipitation, MM = Missing Value Source: NWS Daily Summary

Daily Weather History Graph

Daily Weather History Graph

Search for Another Location

Airport:

Trip Planner

Search our weather history database for the weather conditions in past years. The results will help you decide how hot, cold, wet, or windy it might be!

Date:

Astronomy

Nov. 03, 2013 Rise Set
Actual Time 6:54 AM CST 5:33 PM CST
Civil Twilight 6:27 AM CST 5:59 PM CST
Nautical Twilight 5:57 AM CST 6:29 PM CST
Astronomical Twilight 5:27 AM CST 6:59 PM CST
Moon 6:58 AM CST (11/3) 5:50 PM CST (11/3)
Length of Visible Light 11h 31m
Length of Day
10h 39m
New Moon, 0% of the Moon is Illuminated
Nov 3
New Moon
Nov 9
First Quarter
Nov 17
Full
Nov 25
Last Quarter
Dec 2
New

Hourly Weather History & Observations

Time (CST) Temp. Windchill Dew Point Humidity Pressure Visibility Wind Dir Wind Speed Gust Speed Precip Events Conditions
12:52 AM 42.1 °F 38.4 °F 33.1 °F 70% 30.17 in 10.0 mi SSE 5.8 mph - N/A   Clear
1:52 AM 39.0 °F 34.8 °F 32.0 °F 76% 30.16 in 10.0 mi South 5.8 mph - N/A   Clear
1:52 AM 39.9 °F 35.1 °F 32.0 °F 73% 30.15 in 10.0 mi South 6.9 mph - N/A   Clear
2:52 AM 41.0 °F 35.2 °F 32.0 °F 70% 30.14 in 10.0 mi SSE 9.2 mph - N/A   Clear
3:52 AM 39.9 °F 34.5 °F 32.0 °F 73% 30.14 in 10.0 mi SSE 8.1 mph - N/A   Clear
4:52 AM 39.0 °F 32.8 °F 32.0 °F 76% 30.13 in 10.0 mi SSE 9.2 mph - N/A   Clear
5:52 AM 41.0 °F 35.2 °F 33.1 °F 73% 30.12 in 10.0 mi SSE 9.2 mph - N/A   Partly Cloudy
6:52 AM 42.1 °F 35.2 °F 34.0 °F 73% 30.12 in 10.0 mi South 12.7 mph - N/A   Scattered Clouds
7:52 AM 46.0 °F 40.6 °F 35.1 °F 66% 30.12 in 10.0 mi SSE 11.5 mph - N/A   Mostly Cloudy
8:52 AM 52.0 °F - 36.0 °F 54% 30.13 in 10.0 mi South 17.3 mph 26.5 mph N/A   Mostly Cloudy
9:52 AM 55.9 °F - 35.1 °F 45% 30.10 in 10.0 mi South 19.6 mph 28.8 mph N/A   Mostly Cloudy
10:52 AM 57.9 °F - 34.0 °F 41% 30.09 in 10.0 mi South 23.0 mph 27.6 mph N/A   Mostly Cloudy
11:52 AM 60.1 °F - 35.1 °F 39% 30.07 in 10.0 mi South 19.6 mph 27.6 mph N/A   Mostly Cloudy
12:52 PM 60.1 °F - 35.1 °F 39% 30.01 in 10.0 mi South 18.4 mph 25.3 mph N/A   Mostly Cloudy
1:52 PM 61.0 °F - 36.0 °F 39% 29.98 in 10.0 mi SSE 19.6 mph 23.0 mph N/A   Mostly Cloudy
2:52 PM 61.0 °F - 37.0 °F 41% 29.96 in 10.0 mi SSE 19.6 mph 27.6 mph N/A   Mostly Cloudy
3:52 PM 59.0 °F - 37.0 °F 44% 29.94 in 10.0 mi SSE 17.3 mph 26.5 mph N/A   Mostly Cloudy
4:52 PM 59.0 °F - 37.9 °F 46% 29.94 in 10.0 mi SSE 15.0 mph - N/A   Mostly Cloudy
5:52 PM 57.9 °F - 37.9 °F 47% 29.93 in 10.0 mi SSE 21.9 mph 29.9 mph N/A   Overcast
6:52 PM 57.9 °F - 37.9 °F 47% 29.94 in 10.0 mi SSE 19.6 mph 27.6 mph N/A   Overcast
7:52 PM 57.0 °F - 37.9 °F 49% 29.94 in 10.0 mi South 20.7 mph 27.6 mph N/A   Overcast
8:52 PM 57.0 °F - 37.9 °F 49% 29.93 in 10.0 mi South 20.7 mph 33.4 mph N/A   Overcast
9:52 PM 57.0 °F - 39.9 °F 53% 29.92 in 10.0 mi SSE 21.9 mph 32.2 mph N/A   Overcast
10:52 PM 57.0 °F - 41.0 °F 55% 29.91 in 10.0 mi South 18.4 mph 28.8 mph N/A   Overcast